| time (UTC) | temp C | wind direction | speed KPH | gust KPH | rain 1hr cm | rain 24hr cm | rain mn cm | humidity % | barometer mb |
| 20260509011542 | 15 | 0 | 0.0 | 1.6 | 0.00 | 0.00 | 0.00 | 87 | 1014.5 |
| 20260509010041 | 16 | 0 | 0.0 | 0.0 | 0.00 | 0.00 | 0.00 | 85 | 1014.4 |
| 20260509004541 | 16 | 0 | 0.0 | 0.0 | 0.00 | 0.00 | 0.00 | 85 | 1014.3 |
| 20260509003042 | 16 | 0 | 0.0 | 0.0 | 0.00 | 0.00 | 0.00 | 83 | 1014.1 |
| 20260509001542 | 16 | 0 | 0.0 | 9.7 | 0.00 | 0.00 | 0.00 | 83 | 1014.4 |
| 20260509000044 | 17 | 0 | 0.0 | 0.0 | 0.00 | 0.00 | 0.00 | 77 | 1014.2 |
| 20260508234546 | 17 | 0 | 0.0 | 0.0 | 0.00 | 0.00 | 0.00 | 78 | 1014.1 |
| 20260508233041 | 18 | 0 | 0.0 | 3.2 | 0.00 | 0.00 | 0.00 | 72 | 1014.1 |
| 20260508231621 | 18 | 0 | 0.0 | 3.2 | 0.00 | 0.00 | 0.00 | 72 | 1014.0 |
| 20260508230053 | 18 | 0 | 0.0 | 4.8 | 0.00 | 0.00 | 0.00 | 71 | 1014.1 |
| 20260508224539 | 18 | 248 | 0.0 | 6.4 | 0.00 | 0.00 | 0.00 | 74 | 1014.1 |
| 20260508223045 | 18 | 214 | 1.6 | 6.4 | 0.00 | 0.00 | 0.00 | 69 | 1014.2 |
| 20260508221542 | 19 | 238 | 0.0 | 4.8 | 0.00 | 0.00 | 0.00 | 71 | 1014.2 |
| 20260508220045 | 19 | 0 | 1.6 | 4.8 | 0.00 | 0.00 | 0.00 | 67 | 1014.1 |
| 20260508214559 | 20 | 215 | 1.6 | 8.0 | 0.00 | 0.00 | 0.00 | 69 | 1014.1 |
| 20260508213049 | 20 | 191 | 3.2 | 8.0 | 0.00 | 0.00 | 0.00 | 64 | 1014.0 |
| 20260508211543 | 20 | 187 | 3.2 | 9.7 | 0.00 | 0.00 | 0.00 | 63 | 1014.0 |
| 20260508210045 | 20 | 180 | 1.6 | 6.4 | 0.00 | 0.00 | 0.00 | 61 | 1014.2 |
| 20260508204542 | 20 | 210 | 4.8 | 11.3 | 0.00 | 0.00 | 0.00 | 58 | 1014.2 |
| 20260508203040 | 20 | 0 | 3.2 | 9.7 | 0.00 | 0.00 | 0.00 | 58 | 1014.3 |
| 20260508201539 | 20 | 186 | 3.2 | 11.3 | 0.00 | 0.00 | 0.00 | 59 | 1014.5 |
| 20260508200035 | 20 | 202 | 4.8 | 12.9 | 0.00 | 0.00 | 0.00 | 59 | 1014.6 |
| 20260508194553 | 20 | 171 | 4.8 | 12.9 | 0.00 | 0.00 | 0.00 | 57 | 1014.8 |
| 20260508193051 | 20 | 237 | 3.2 | 14.5 | 0.00 | 0.00 | 0.00 | 58 | 1015.3 |
| 20260508191542 | 20 | 198 | 4.8 | 11.3 | 0.00 | 0.00 | 0.00 | 57 | 1015.4 |
| 20260508190036 | 21 | 130 | 4.8 | 17.7 | 0.00 | 0.00 | 0.00 | 56 | 1015.5 |
| 20260508184535 | 21 | 299 | 1.6 | 16.1 | 0.00 | 0.00 | 0.00 | 55 | 1015.6 |
| 20260508183043 | 21 | 221 | 6.4 | 9.7 | 0.00 | 0.00 | 0.00 | 56 | 1015.8 |
| 20260508181549 | 20 | 24 | 4.8 | 16.1 | 0.00 | 0.00 | 0.00 | 57 | 1016.1 |
| 20260508180041 | 20 | 144 | 4.8 | 11.3 | 0.00 | 0.00 | 0.00 | 61 | 1016.2 |
| 20260508174540 | 20 | 70 | 6.4 | 12.9 | 0.00 | 0.00 | 0.00 | 58 | 1016.4 |
| 20260508173040 | 20 | 150 | 9.7 | 14.5 | 0.00 | 0.00 | 0.00 | 57 | 1016.6 |
| 20260508171538 | 20 | 173 | 4.8 | 14.5 | 0.00 | 0.00 | 0.00 | 56 | 1016.8 |
| 20260508170035 | 19 | 143 | 9.7 | 19.3 | 0.00 | 0.00 | 0.00 | 58 | 1016.9 |
| 20260508164535 | 20 | 73 | 6.4 | 16.1 | 0.00 | 0.00 | 0.00 | 60 | 1017.2 |
| 20260508163041 | 19 | 78 | 8.0 | 16.1 | 0.00 | 0.00 | 0.00 | 58 | 1017.5 |
| 20260508161542 | 18 | 146 | 8.0 | 19.3 | 0.00 | 0.00 | 0.00 | 59 | 1017.7 |
| 20260508160037 | 18 | 198 | 3.2 | 16.1 | 0.00 | 0.00 | 0.00 | 60 | 1017.9 |
| 20260508154535 | 18 | 165 | 4.8 | 16.1 | 0.00 | 0.00 | 0.00 | 63 | 1018.0 |
| 20260508153045 | 18 | 199 | 6.4 | 17.7 | 0.00 | 0.00 | 0.00 | 64 | 1018.2 |
| 20260508151543 | 17 | 219 | 3.2 | 14.5 | 0.00 | 0.00 | 0.00 | 67 | 1018.3 |
| 20260508150042 | 17 | 150 | 1.6 | 14.5 | 0.00 | 0.00 | 0.00 | 69 | 1018.2 |
| 20260508144541 | 17 | 90 | 9.7 | 16.1 | 0.00 | 0.00 | 0.00 | 69 | 1018.2 |
| 20260508143035 | 17 | 136 | 9.7 | 17.7 | 0.00 | 0.00 | 0.00 | 67 | 1018.1 |
| 20260508141536 | 16 | 139 | 8.0 | 16.1 | 0.00 | 0.00 | 0.00 | 69 | 1018.1 |
| 20260508140044 | 16 | 92 | 4.8 | 12.9 | 0.00 | 0.00 | 0.00 | 69 | 1018.3 |
| 20260508134535 | 16 | 55 | 6.4 | 14.5 | 0.00 | 0.03 | 0.00 | 70 | 1018.5 |
| 20260508133043 | 15 | 50 | 1.6 | 9.7 | 0.00 | 0.03 | 0.00 | 78 | 1018.5 |
| 20260508131541 | 14 | 0 | 1.6 | 4.8 | 0.00 | 0.03 | 0.00 | 82 | 1018.5 |
| 20260508130035 | 13 | 83 | 1.6 | 4.8 | 0.00 | 0.03 | 0.00 | 87 | 1018.5 |
| 20260508124542 | 12 | 0 | 0.0 | 4.8 | 0.00 | 0.33 | 0.00 | 90 | 1018.4 |
| 20260508123042 | 12 | 0 | 0.0 | 3.2 | 0.00 | 0.33 | 0.00 | 92 | 1018.0 |
| 20260508121543 | 11 | 0 | 0.0 | 3.2 | 0.00 | 0.33 | 0.00 | 93 | 1017.8 |
| 20260508120041 | 10 | 0 | 0.0 | 0.0 | 0.00 | 0.33 | 0.00 | 96 | 1017.7 |
| 20260508114535 | 10 | 0 | 0.0 | 0.0 | 0.00 | 0.94 | 0.00 | 96 | 1017.4 |
| 20260508113044 | 9 | 0 | 0.0 | 3.2 | 0.00 | 0.94 | 0.00 | 96 | 1017.2 |
| 20260508111557 | 9 | 0 | 0.0 | 1.6 | 0.00 | 0.94 | 0.00 | 96 | 1016.9 |
| 20260508110041 | 8 | 0 | 0.0 | 0.0 | 0.00 | 0.94 | 0.00 | 95 | 1016.4 |
| 20260508104539 | 8 | 0 | 0.0 | 0.0 | 0.00 | 1.07 | 0.00 | 95 | 1016.0 |
| 20260508103037 | 9 | 0 | 0.0 | 3.2 | 0.00 | 1.07 | 0.00 | 94 | 1015.9 |
| 20260508101536 | 9 | 311 | 0.0 | 4.8 | 0.00 | 1.07 | 0.00 | 93 | 1015.8 |
| 20260508100036 | 9 | 319 | 1.6 | 4.8 | 0.00 | 1.07 | 0.00 | 94 | 1015.5 |
| 20260508094545 | 9 | 0 | 0.0 | 0.0 | 0.00 | 1.09 | 0.00 | 93 | 1015.3 |
| 20260508093040 | 10 | 0 | 0.0 | 1.6 | 0.00 | 1.09 | 0.00 | 92 | 1015.3 |
| 20260508091544 | 10 | 94 | 0.0 | 4.8 | 0.00 | 1.09 | 0.00 | 91 | 1015.3 |
| 20260508090036 | 10 | 58 | 3.2 | 12.9 | 0.00 | 1.09 | 0.00 | 90 | 1015.0 |
| 20260508084534 | 10 | 296 | 6.4 | 11.3 | 0.00 | 1.14 | 0.00 | 89 | 1014.8 |
| 20260508083037 | 10 | 343 | 3.2 | 12.9 | 0.00 | 1.14 | 0.00 | 90 | 1014.6 |
| 20260508081548 | 11 | 302 | 4.8 | 9.7 | 0.00 | 1.14 | 0.00 | 90 | 1014.6 |
| 20260508080041 | 11 | 326 | 3.2 | 8.0 | 0.00 | 1.14 | 0.00 | 91 | 1014.5 |
| 20260508074541 | 11 | 339 | 4.8 | 8.0 | 0.00 | 1.47 | 0.00 | 92 | 1014.6 |
| 20260508073035 | 11 | 332 | 4.8 | 8.0 | 0.00 | 1.47 | 0.00 | 92 | 1014.9 |
| 20260508071536 | 11 | 333 | 3.2 | 11.3 | 0.00 | 1.47 | 0.00 | 92 | 1014.8 |
| 20260508070044 | 11 | 327 | 1.6 | 8.0 | 0.00 | 1.47 | 0.00 | 93 | 1014.7 |
| 20260508064542 | 11 | 303 | 1.6 | 6.4 | 0.00 | 1.78 | 0.00 | 93 | 1014.8 |
| 20260508063041 | 12 | 304 | 1.6 | 6.4 | 0.00 | 1.78 | 0.00 | 92 | 1014.5 |
| 20260508061538 | 12 | 0 | 0.0 | 0.0 | 0.00 | 1.78 | 0.00 | 92 | 1014.5 |
| 20260508060035 | 12 | 0 | 0.0 | 0.0 | 0.00 | 1.78 | 0.00 | 90 | 1014.7 |
| 20260508054544 | 11 | 0 | 0.0 | 1.6 | 0.00 | 2.62 | 0.00 | 91 | 1014.6 |
| 20260508053045 | 12 | 0 | 0.0 | 1.6 | 0.00 | 2.62 | 0.00 | 90 | 1014.8 |
| 20260508051546 | 12 | 286 | 1.6 | 4.8 | 0.00 | 2.62 | 0.00 | 87 | 1014.8 |
| 20260508050045 | 13 | 0 | 0.0 | 9.7 | 0.00 | 2.62 | 0.00 | 85 | 1014.7 |
| 20260508044543 | 13 | 319 | 3.2 | 4.8 | 0.00 | 3.17 | 0.00 | 85 | 1014.6 |
| 20260508043049 | 13 | 301 | 1.6 | 4.8 | 0.00 | 3.17 | 0.00 | 85 | 1014.5 |
| 20260508041541 | 13 | 311 | 3.2 | 6.4 | 0.00 | 3.17 | 0.00 | 84 | 1014.5 |
| 20260508040038 | 13 | 0 | 0.0 | 1.6 | 0.00 | 3.17 | 0.00 | 84 | 1014.4 |
| 20260508034539 | 13 | 0 | 0.0 | 4.8 | 0.00 | 3.38 | 3.17 | 82 | 1014.2 |
| 20260508033042 | 14 | 335 | 1.6 | 6.4 | 0.00 | 3.38 | 3.17 | 80 | 1014.2 |
| 20260508031542 | 15 | 278 | 3.2 | 11.3 | 0.00 | 3.38 | 3.17 | 78 | 1014.4 |
| 20260508030041 | 15 | 236 | 4.8 | 12.9 | 0.00 | 3.38 | 3.17 | 78 | 1014.1 |
| 20260508024541 | 15 | 287 | 1.6 | 4.8 | 0.00 | 3.48 | 3.17 | 78 | 1014.1 |
| 20260508023035 | 15 | 0 | 0.0 | 4.8 | 0.00 | 3.48 | 3.17 | 76 | 1013.9 |
| 20260508021536 | 16 | 310 | 4.8 | 16.1 | 0.00 | 3.48 | 3.17 | 74 | 1013.5 |
| 20260508020042 | 16 | 294 | 4.8 | 16.1 | 0.00 | 3.48 | 3.17 | 74 | 1013.5 |
| 20260508014541 | 16 | 291 | 8.0 | 14.5 | 0.00 | 3.66 | 3.17 | 72 | 1013.4 |
| 20260508013037 | 16 | 291 | 6.4 | 16.1 | 0.00 | 3.66 | 3.17 | 72 | 1013.1 |